Regional Weather Roundup
Issued by NWS

Home | Current Version | Previous Version | Text Only | Print | Product List | Glossary Off
Versions: 1 2 3 4 5 6 7 8 9 10 11 12 13 14 15 16 17 18 19 20 21 22 23 24 25 26 27 28 29 30 31 32 33 34 35 36 37 38 39 40 41 42 43 44 45 46 47 48 49 50

000
ASUS44 KMEG 302310
RWRTN
TENNESSEE HOURLY STATE WEATHER ROUNDUP
NATIONAL WEATHER SERVICE MEMPHIS TN
600 PM CDT FRI SEP 30 2016

TNZ002-004-019-021-049-052-054-088>092-010000-
WEST TENNESSEE

CITY           SKY/WX    TMP DP  RH WIND       PRES   REMARKS
MEMPHIS INTL   PTCLDY    73  53  49 NW7       30.04F
NWS MEMPHIS      N/A     74 N/A N/A MISG        N/A
JACKSON        CLOUDY   N/A N/A N/A W6        30.04S
DYERSBURG      CLOUDY   N/A N/A N/A MISG        N/A
UNION CITY     CLOUDY    64  59  82 NW5       30.03S
PARIS          MOCLDY    61  55  82 W3        30.04F
HUNTINGDON     CLOUDY    66  57  72 VRB5      30.03S
LEXINGTON      CLOUDY    66  54  63 W3        30.04R
$$

TNZ008-025-027-028-033-062-065-066-010000-
NORTH MIDDLE TENNESSEE

CITY           SKY/WX    TMP DP  RH WIND       PRES   REMARKS
NASHVILLE      LGT RAIN  61  58  90 NW5       30.05R FOG
PORTLAND       MOCLDY    61  57  88 SW7       30.03S
CLARKSVILLE    CLOUDY    65  59  81 W5        30.02S
SMYRNA         LGT RAIN  65  54  67 SW8       30.05R
COOKEVILLE     CLOUDY    61  57  88 CALM      30.06R
GALLATIN       CLOUDY    63  59  88 CALM      30.07R
CROSSVILLE     MOCLDY    59  49  69 W5        30.07R
$$

TNZ061-075-076-078-094-096-097-010000-
SOUTH MIDDLE TENNESSEE

CITY           SKY/WX    TMP DP  RH WIND       PRES   REMARKS
FAYETTEVILLE   CLEAR     64  52  63 CALM      30.06S
TULLAHOMA      CLEAR     63  52  67 SW6       30.07S
WINCHESTER     CLEAR     63  52  67 W3        30.08R
MCMINNVILLE    MOCLDY    64  54  68 CALM      30.06S
COLUMBIA       MOCLDY    66  61  82 SW6       30.04R
SHELBYVILLE    MOCLDY    68  54  60 SW8       30.06S
$$

TNZ017-018-042-046-047-010000-
NORTHEAST TENNESSEE

CITY           SKY/WX    TMP DP  RH WIND       PRES   REMARKS
TRI CITIES     PTCLDY    66  51  58 NW6       30.03R
ELIZABETHTON   PTCLDY    61  57  88 CALM      30.03R
$$

TNZ012-013-036-069-073-074-010000-
CENTRAL EAST TENNESSEE

CITY           SKY/WX    TMP DP  RH WIND       PRES   REMARKS
KNOXVILLE      PTCLDY    68  44  42 W7        30.03R
OAK RIDGE      PTCLDY    69  45  41 W5        30.05R
DOWNTOWN KNOXV CLEAR     68  45  42 W6        30.03R
GATLINBURG     MOCLDY    70  43  37 W7        30.03R
MORRISTOWN     MOCLDY    68  45  42 W7        30.02R
JACKSBORO      PTCLDY    66  48  52 CALM      30.06S
$$

TNZ083-085-099-010000-
SOUTHEAST TENNESSEE

CITY           SKY/WX    TMP DP  RH WIND       PRES   REMARKS
CHATTANOOGA    MOCLDY    71  47  42 W7        30.04R
$$

SKY/WX REPORTED AS FAIR MEANS FEW OR NO CLOUDS BELOW
12 THOUSAND FEET.




USA.gov is the U.S. government's official web portal to all federal, state and local government web resources and services.